Regional Weather Roundup
Issued by NWS New Orleans/Baton Rouge, LA

Home | Current Version | Previous Version | Text Only | Print | Product List | Glossary On
Versions: 1 2 3 4 5 6 7 8 9 10 11 12 13 14 15 16 17 18 19 20 21 22 23 24 25 26 27 28 29 30 31 32 33 34 35 36 37 38 39 40 41 42 43 44 45 46 47 48 49 50
000
ASUS44 KLIX 251013
RWRLIX
NEW ORLEANS REGIONAL WEATHER ROUNDUP
NATIONAL WEATHER SERVICE NEW ORLEANS LA
400 AM CST SAT FEB 25 2017

NOTE: "FAIR" INDICATES FEW OR NO CLOUDS BELOW 12,000 FEET WITH NO
      SIGNIFICANT WEATHER AND/OR OBSTRUCTIONS TO VISIBILITY.
      SKY/WX - SKY CONDITION AND SIGNIFICANT WEATHER.
      TMP - AIR TEMPERATURE.     DP    - DEWPOINT TEMPERATURE.
      RH  - RELATIVE HUMIDITY.   PRES  - PRESSURE.
      HI  - HEAT INDEX.          WCI   - WIND CHILL INDEX.

*  THESE STATIONS ARE NOT NWS OR FAA STATIONS AND ARE NOT UNDER
   NWS QUALITY CONTROL.

LAZ038-040-048-061>063-065>067-069-251100-
SOUTHEAST LOUISIANA

CITY           SKY/WX    TMP DP  RH WIND       PRES   REMARKS
N.O. AUDUBON   NOT AVBL
N.O. INTL ARPT PTCLDY    64  53  67 N15       29.92R
N.O. LAKEFRONT MOCLDY    66  55  67 N29G36    29.92R
N.O. DOWNTOWN*   N/A     66  54  65 N12G20    29.92R
RESERVE*         N/A     64  49  58 N15G22    29.93R
SLIDELL        PTCLDY    63  51  65 N12G18    29.90R
BATON ROUGE    CLEAR     60  43  53 N8        29.95S
BOOTHVILLE     CLOUDY    66  66 100 NW3       29.88S
BELLE CHASSE   CLEAR     66  56  70 N13G23    29.90R
BOGALUSA*      CLOUDY    63  42  46 N13G22    29.95R
GALLIANO*      MOSUNNY   66  58  77 N20G26    29.90R
NEW ROADS*       N/A     55  43  63 N9        29.96F
GONZALES*        N/A     62  46  55 N10G17    29.93S
HAMMOND*       MOCLDY    61  32  33 N20       29.95R
HOUMA*         CLEAR     64  53  68 N17G28    29.91R
PORT FOURCHON* CLOUDY    68  64  88 NW21G29   29.89R

$$

MSZ070-080>082-251100-
SOUTHERN MISSISSIPPI

CITY           SKY/WX    TMP DP  RH WIND       PRES   REMARKS
MCCOMB         CLEAR     56  28  34 N9        29.96S
GULFPORT       PTCLDY    64  61  90 NW10      29.88R
BILOXI         MOCLDY    65  62  89 NW8       29.87R
PASCAGOULA     MOCLDY    66  61  84 NW6       29.87R

$$

COASTAL OBSERVATIONS
LAKE AND NEARSHORE STATIONS

STATION/POSITION TIME  TEMP    WIND        PRES    WAVE
                       AIR SEA DIR/SP/G            HT/PER
                 (UTC) (F)     (DEG/KT/KT) (MB)    (FT/S)
PASCAGOULA       0942   68     300/ 10/ 17 1010.7
WAVELAND YACHT   0942   66 68  340/ 15/ 18 1011.6
GRAND ISLE       0942   70 70  320/ 14/ 15 1011.6
SOUTHWEST PASS   0942          300/  6/  8   N/A
NEW CANAL        0942   66 67  350/ 14/ 22 1012.1
SHELL BEACH      0942   68 69  330/ 23/ 25 1012.1

OFFSHORE STATIONS

STATION/POSITION TIME  TEMP    WIND        PRES    WAVE
                       AIR SEA DIR/SP/G            HT/PER
                 (UTC) (F)     (DEG/KT/KT) (MB)    (FT/S)

$$




USA.gov is the U.S. government's official web portal to all federal, state and local government web resources and services.